Flag for United Kingdom Weather past 2 weeks in Plymouth, England, United Kingdom

Now
64 °F

Passing clouds.


Feels Like: 64 °F
Forecast: 54 / 62 °F
Wind: 17 mph from Northwest

Location: Exeter Airport

Current Time: Jul 28, 2015 at 4:44:48 PM

Latest Report: Jul 28, 2015 at 4:20 PM


Visibility: N/A

Pressure: 29.80 "Hg

Humidity: 52%

Dew point: 46 °F

Location of PlymouthLocation

Historic Weather in Plymouth — Graph

°F

Plymouth temperature yesterday

Maximum temperature yesterday: 63 °F (at 2:20 PM)
Minimum temperature yesterday: 57 °F (at 11:50 PM)
Average temperature yesterday: 60 °F

Past Weeks' High & Low Weather Summary

 TemperatureHumidityPressure
High73 °F (Jul 19, 3:50 PM)100% (Jul 14, 12:50 AM)30.09 "Hg (Jul 14, 12:50 AM)
Low45 °F (Jul 18, 5:50 AM)46% (Jul 25, 2:50 PM)29.47 "Hg (Jul 26, 1:20 PM)
Average62 °F80%29.90 "Hg
* Reported Jul 13 3:20 PM — Jul 28 3:20 PM, Plymouth, Weather by CustomWeather, © 2015

Note: Actual official high and low records may vary slightly from our data, if they occured in-between our weather recording intervals... More about our weather records

Advertising

Plymouth weather history for previous 24 hours

 ConditionsComfort  
Time TempWeatherWind HumidityBarometerVisibility
3:20 PM
Tue, Jul 28
64 °FPassing clouds.15 mph60%29.80 "HgN/A
2:50 PM63 °FScattered clouds.13 mph59%29.80 "HgN/A
2:20 PM63 °FScattered clouds.15 mph64%29.80 "HgN/A
1:50 PM63 °FScattered clouds.14 mph59%29.80 "HgN/A
1:20 PM64 °FPassing clouds.14 mph60%29.80 "HgN/A
12:50 PM61 °FPassing clouds.15 mph77%29.80 "HgN/A
12:20 PM59 °FSprinkles. Scattered clouds.13 mph77%29.80 "HgN/A
11:50 AM59 °FPassing clouds.16 mph72%29.80 "HgN/A
11:20 AM61 °FLight rain. Scattered clouds.14 mph63%29.80 "HgN/A
10:20 AM61 °FPassing clouds.16 mph68%29.77 "HgN/A
9:50 AM61 °FPassing clouds.16 mph68%29.77 "HgN/A
9:20 AM59 °FPassing clouds.12 mph72%29.77 "HgN/A
8:50 AM57 °FPassing clouds.12 mph77%29.77 "HgN/A
8:20 AM57 °FPassing clouds.12 mph77%29.77 "HgN/A
7:50 AM57 °FPassing clouds.12 mph72%29.77 "HgN/A
7:20 AM55 °FPassing clouds.10 mph77%29.77 "HgN/A
6:50 AM55 °FPassing clouds.12 mph82%29.77 "HgN/A
6:20 AM55 °FPassing clouds.8 mph77%29.77 "HgN/A
5:50 AM55 °FPassing clouds.9 mph82%29.74 "HgN/A
1:50 AM57 °FPassing clouds.13 mph77%29.74 "HgN/A
1:20 AM57 °FPassing clouds.13 mph77%29.74 "HgN/A
12:50 AM57 °FPassing clouds.14 mph82%29.74 "HgN/A
12:20 AM57 °FPassing clouds.14 mph82%29.74 "HgN/A
11:50 PM
Mon, Jul 27
57 °FPassing clouds.15 mph82%29.74 "HgN/A
11:20 PM59 °FPassing clouds.16 mph77%29.74 "HgN/A
10:50 PM59 °FPassing clouds.15 mph77%29.71 "HgN/A
10:20 PM59 °FScattered showers. Passing clouds.12 mph77%29.74 "HgN/A
9:50 PM59 °FScattered showers. Scattered clouds.15 mph77%29.71 "HgN/A
9:20 PM59 °FScattered showers. Scattered clouds.17 mph77%29.71 "HgN/A
8:50 PM59 °FScattered showers. Scattered clouds.15 mph82%29.71 "HgN/A
8:20 PM59 °FScattered showers. Scattered clouds.12 mph82%29.71 "HgN/A
7:50 PM59 °FScattered clouds.15 mph82%29.71 "HgN/A
7:20 PM59 °FScattered showers. Scattered clouds.17 mph82%29.68 "HgN/A
6:50 PM59 °FScattered showers. Scattered clouds.17 mph82%29.68 "HgN/A
6:20 PM61 °FScattered showers. Scattered clouds.13 mph72%29.68 "HgN/A
5:50 PM61 °FScattered clouds.18 mph72%29.68 "HgN/A
5:20 PM63 °FScattered clouds.16 mph64%29.68 "HgN/A
4:50 PM63 °FScattered clouds.20 mph68%29.68 "HgN/A
4:20 PM61 °FPartly sunny.13 mph68%29.68 "HgN/A
Weather by CustomWeather, © 2015

See weather overviewHow to use our weather pages